Ottumwa, IA

4:03 PM CDT on April 25, 2018 (GMT -0500)
Ottumwa Industrial

Weather History for KOTM - March, 2012

Change the Weather History Date:

Thursday, March 15, 2012

  Actual Average Record
Temperature  
Mean Temperature 70 °F 38 °F  
Max Temperature 80 °F 49 °F 80 °F (2012)
Min Temperature 60 °F 28 °F 7 °F (2017)
Degree Days  
Heating Degree Days 0 26  
Month to date heating degree days 302 443  
Since 1 July heating degree days 4522 5328  
Cooling Degree Days 5 0  
Month to date cooling degree days 9 0  
Year to date cooling degree days 9 0  
Growing Degree Days 20 (Base 50)    
Moisture  
Dew Point 59 °F    
Average Humidity 68    
Maximum Humidity 90    
Minimum Humidity 45    
Precipitation  
Precipitation 0.00 in 0.07 in 2.28 in (1919)
Month to date precipitation 0.58 1.01  
Year to date precipitation 2.56 3.19  
Sea Level Pressure  
Sea Level Pressure 29.97 in    
Wind  
Wind Speed 9 mph (SW)    
Max Wind Speed 20 mph    
Max Gust Speed 25 mph    
Visibility 10 miles    
Events      
T = Trace of Precipitation, MM = Missing Value Source: NWS Daily Summary

Daily Weather History Graph

Daily Weather History Graph

Search for Another Location

Airport or City:

Astronomy

Mar. 15, 2012 Rise Set
Actual Time 7:20 AM CDT 7:17 PM CDT
Civil Twilight 6:53 AM CDT 7:44 PM CDT
Nautical Twilight 6:21 AM CDT 8:16 PM CDT
Astronomical Twilight 5:48 AM CDT 8:49 PM CDT
Moon 2:51 AM CDT (3/15) 12:31 PM CDT (3/15)
Length of Visible Light 12h 51m
Length of Day
11h 56m
Last Quarter, 43% of the Moon is Illuminated
Mar 15
Last Quarter
Mar 22
New
Mar 30
First Quarter
Apr 6
Full
Apr 13
Last Quarter

Hourly Weather History & Observations

Time (CDT) Temp. Heat Index Dew Point Humidity Pressure Visibility Wind Dir Wind Speed Gust Speed Precip Events Conditions
12:53 AM 66.9 °F - 60.1 °F 79% 29.91 in 10.0 mi SSW 16.1 mph - N/A   Clear
1:53 AM 66.0 °F - 60.1 °F 81% 29.92 in 10.0 mi SSW 16.1 mph - N/A   Clear
2:53 AM 64.9 °F - 60.1 °F 84% 29.93 in 10.0 mi SW 12.7 mph 23.0 mph N/A   Clear
3:53 AM 64.0 °F - 59.0 °F 84% 29.94 in 10.0 mi SW 12.7 mph - N/A   Clear
4:53 AM 62.6 °F - 59.0 °F 88% 29.96 in 10.0 mi SW 12.7 mph - N/A   Clear
5:53 AM 63.0 °F - 59.0 °F 87% 29.96 in 10.0 mi WSW 11.5 mph - N/A   Clear
6:53 AM 62.1 °F - 57.9 °F 86% 29.97 in 10.0 mi WSW 11.5 mph - N/A   Clear
7:53 AM 60.1 °F - 57.9 °F 93% 30.00 in 8.0 mi WSW 6.9 mph - N/A   Clear
8:19 AM 60.8 °F - 59.0 °F 94% 30.01 in 8.0 mi WSW 8.1 mph - N/A   Mostly Cloudy
8:53 AM 62.1 °F - 59.0 °F 90% 30.01 in 9.0 mi WSW 6.9 mph - N/A   Overcast
9:53 AM 64.9 °F - 60.1 °F 84% 30.01 in 10.0 mi WSW 8.1 mph - N/A   Overcast
10:53 AM 69.1 °F - 61.0 °F 75% 30.01 in 10.0 mi WSW 11.5 mph - N/A   Mostly Cloudy
11:00 AM 69.8 °F - 60.8 °F 73% 30.02 in - West 10.4 mph - N/A   Unknown
11:53 AM 72.0 °F - 61.0 °F 68% 30.00 in 10.0 mi North - - N/A   Mostly Cloudy
12:09 PM 71.6 °F - 60.8 °F 69% 30.01 in 10.0 mi West 11.5 mph - N/A   Scattered Clouds
12:53 PM 73.0 °F - 61.0 °F 66% 29.99 in 10.0 mi WSW 10.4 mph - N/A   Partly Cloudy
1:53 PM 75.0 °F - 61.0 °F 62% 29.98 in 10.0 mi SW 8.1 mph - N/A   Scattered Clouds
2:53 PM 77.0 °F - 60.1 °F 56% 29.95 in 10.0 mi SSW 9.2 mph - N/A   Partly Cloudy
3:53 PM 80.1 °F 80.6 °F 57.9 °F 47% 29.93 in 10.0 mi SSW 12.7 mph 19.6 mph N/A   Clear
4:53 PM 79.0 °F - 57.0 °F 47% 29.93 in 9.0 mi South 9.2 mph - N/A   Partly Cloudy
5:53 PM 77.0 °F - 57.9 °F 52% 29.92 in 10.0 mi West 5.8 mph - N/A   Clear
6:53 PM 73.9 °F - 55.9 °F 53% 29.93 in 10.0 mi SW 3.5 mph - N/A   Clear
7:53 PM 69.1 °F - 55.9 °F 63% 29.94 in 10.0 mi SSE 3.5 mph - N/A   Clear
8:53 PM 64.9 °F - 55.0 °F 70% 29.96 in 10.0 mi South 5.8 mph - N/A   Clear
9:53 PM 64.0 °F - 55.9 °F 75% 29.97 in 10.0 mi South 6.9 mph - N/A   Mostly Cloudy
10:53 PM 64.0 °F - 57.0 °F 78% 29.97 in 10.0 mi South 8.1 mph - N/A   Partly Cloudy
11:53 PM 62.1 °F - 57.0 °F 84% 29.97 in 10.0 mi South 6.9 mph - N/A   Clear